{"data":{"norad_id":55572,"epoch":"2026-09-20T05:11:39.230592Z","epoch_age_seconds":124908,"freshness":"FRESH","line1":"1 55572U 23020D   26263.21642628 -.00000650  00000+0 -14092-4 0  9993","line2":"2 55572  43.0038 349.9884 0001080 274.4035  85.6693 15.27574473198621","mean_motion":15.27574473,"eccentricity":0.000108,"inclination_deg":43.0038,"raan_deg":349.9884,"arg_perigee_deg":274.4035,"mean_anomaly_deg":85.6693,"bstar":-1.4092e-5,"rev_number":19862,"period_min":94.267089785285,"perigee_km":482.32463603012,"apogee_km":483.80665580164,"semimajor_km":6861.2026459159,"source":"CELESTRAK","updated_at":"2026-09-21T09:00:33.262911Z"}}